Location: Unspecified
(0.0000°N, 0.0000°E)
Time: 10:45:00
(UTC+02:00)

Meteor PRIRODA - Visible Passes

Search period start: 30 May 2016 00:00
Search period end: 09 June 2016 00:00
Orbit: 498 x 517 km, 97.4° (Epoch: 28 May)

Date Brightness Start Highest point End Pass type
(mag) Time Alt. Az. Time Alt. Az. Time Alt. Az.
30 May 4.4 06:06:57 10° NNE 06:09:46 49° NNE 06:09:46 49° NNE visible
31 May 5.5 05:49:52 10° NNE 05:52:13 31° ENE 05:52:13 31° ENE visible
01 Jun 6.4 05:33:12 10° NE 05:34:41 17° ENE 05:34:41 17° ENE visible
01 Jun 5.9 07:09:00 10° WNW 07:09:31 10° WNW 07:09:31 10° WNW visible
02 Jun 5.2 06:49:40 10° NNW 06:51:58 19° WNW 06:51:58 19° WNW visible
03 Jun 4.5 06:31:38 10° N 06:34:25 33° NW 06:34:25 33° NW visible
04 Jun 4.2 06:14:03 10° N 06:16:53 49° N 06:16:53 49° N visible
05 Jun 5.0 05:56:49 10° NNE 05:59:20 37° NE 05:59:20 37° NE visible
06 Jun 6.1 05:39:56 10° NE 05:41:46 21° ENE 05:41:46 21° ENE visible
07 Jun 6.9 05:23:40 10° ENE 05:24:12 12° ENE 05:24:12 12° ENE visible
07 Jun 5.5 06:57:15 10° NW 06:59:02 15° WNW 06:59:02 15° WNW visible
08 Jun 4.9 06:38:55 10° NNW 06:41:28 26° WNW 06:41:28 26° WNW visible
